Main page
METAR-TAF:

METAR-TAF

Airports :

Teruel, Spain

Teruel Airport

latitude: 40-24-43N, longitude: 01-13-03W, elevation: 1030 m

Current weather observation

The report was made 37 minutes ago, at 15:00 UTC
Wind 7 kt from the North, varying between Northwest and North/Northeast
Temperature 13°C
Humidity 51%
Pressure 1028 hPa
Visibility 10 km or more
rain

METAR: LETL 231500Z AUTO 35007KT 320V020 9999 RA NSC 13/03 Q1028

Time: 16:37 (15:37 UTC)


TAF: missing

Weather observations and forecasts of more than 4000 airports (METAR and TAF reports).

The available stations are represented by yellow and red dots on the map.

Hover mouse over dot to see the name of the station.

Then click to see weather observations and forecasts.

To change the map : click on the green buttons with a black cross to zoom in, on the green button with a dash to zoom out, or on the green arrows for adjacent maps.


METAR-TAF: